Погода в Новосокольниках

Россия / Псковская область     56°20′26″N   30°09′09″E
темп.,
°C
ветер,
м/с
пор.,
м/с
влажн.,
%
обл.,
%
осадки,
мм/ч
давл.,
гПа
погр.,
м
16 сентября, чт
чт1600:00+4ссз24915 0.0 102076
03:00+3ссз22965 0.0 102121
06:00+2ссв11975 0.0 102210
09:00+6ссв11805 0.0 1022250
12:00+11всв225123 0.0 10221205
15:00+13всв1147100 0.0 10201335
18:00+10всв1161100 0.0 102029
21:00+7в2265100 0.0 102013
17 сентября, пт
пт1700:00+5в2478100 0.0 102077
03:00+4в2585100 0.0 1020111
06:00+3в278782 0.0 1020159
09:00+7в376561 0.0 1020362
12:00+11в46495 0.0 10201237
15:00+13в464347 0.0 10191543
18:00+11в3753100 0.0 1019552
21:00+5всв3107476 0.0 1021225
18 сентября, сб
сб1800:00+4всв31179100 0.0 1022260
03:00+3всв31280100 0.0 1023348
06:00+2всв31282100 0.0 1023369
09:00+5всв51269100 0.0 1023582
12:00+10в6950100 0.0 10221100
15:00+12в6943100 0.0 10211355
18:00+10всв5952100 0.0 10211119
21:00+8всв51259100 0.0 1021746
19 сентября, вс
вс1900:00+6всв41267100 0.0 1021661
03:00+5всв51271100 0.0 1020661
06:00+5всв51375100 0.0 1019649
09:00+6всв6136844 0.0 1019773
12:00+8в71166100 0.2 10191176
15:00+6всв61186100 1.5 10201005
18:00+6св61173100 0.1 10201103
21:00+4св61286100 0.1 1021975
20 сентября, пн
пн2000:00+4св61389100 0.4 1021881
03:00+4св51276100 0.4 1021890
06:00+4св6137199 0.0 1021911
09:00+5св6136976 0.0 1022934
12:00+10св7115134 0.0 10221323
15:00+11св7114754 0.0 10221672
18:00+9св6115599 0.0 10221441
21:00+6св5126645 0.0 1023869